EWG31F LSZH-EDDN

Flight info

Callsign EWG31F
Flight time N/A
Altitude 32000
Route DEGES Z1 SUDEN/N0416F230 Z79 GUPIN N869 LETKU LETKU1T
Aircraft B738/M-SDE2E3FGHIRWXY/LB1

Departure

Time 2026-05-01 14:20
Airport Zürich Airport (LSZH)

Arrival

Time N/A
Airport Nuremberg Airport (EDDN)
Time Latitude Longitude Altitude Speed Heading
2026-05-01 13:56 47.46070 8.55242 1425 ft 0 kts
2026-05-01 14:09 47.46069 8.55242 1425 ft 1 kts
2026-05-01 14:09 47.46055 8.55240 1425 ft 2 kts
2026-05-01 14:09 47.46040 8.55237 1425 ft 2 kts
2026-05-01 14:10 47.46024 8.55235 1425 ft 2 kts
2026-05-01 14:10 47.46011 8.55232 1425 ft 0 kts
2026-05-01 14:11 47.46010 8.55232 1425 ft 0 kts
2026-05-01 14:13 47.46005 8.55231 1425 ft 0 kts
2026-05-01 14:13 47.45993 8.55232 1425 ft 2 kts 334°
2026-05-01 14:14 47.45983 8.55247 1425 ft 2 kts 291°
2026-05-01 14:14 47.45981 8.55257 1425 ft 1 kts 270°
2026-05-01 14:14 47.45981 8.55264 1425 ft 0 kts 276°
2026-05-01 14:16 47.45983 8.55229 1425 ft 5 kts 276°
2026-05-01 14:16 47.45987 8.55190 1425 ft 6 kts 282°
2026-05-01 14:16 47.46003 8.55105 1425 ft 11 kts 315°
2026-05-01 14:17 47.46095 8.55034 1425 ft 17 kts 335°
2026-05-01 14:17 47.46219 8.54946 1425 ft 21 kts 336°
2026-05-01 14:17 47.46373 8.54843 1425 ft 26 kts 334°
2026-05-01 14:17 47.46556 8.54717 1425 ft 31 kts 335°
2026-05-01 14:18 47.46752 8.54571 1425 ft 30 kts 316°
2026-05-01 14:18 47.46906 8.54348 1425 ft 32 kts 334°
2026-05-01 14:18 47.47131 8.54191 1425 ft 38 kts 335°
2026-05-01 14:18 47.47301 8.54075 1425 ft 40 kts 335°
2026-05-01 14:19 47.47590 8.53864 1425 ft 23 kts 314°
2026-05-01 14:19 47.47607 8.53764 1425 ft 1 kts 268°
2026-05-01 14:19 47.47577 8.53668 1425 ft 20 kts 222°
2026-05-01 14:19 47.47391 8.53717 1425 ft 52 kts 154°
2026-05-01 14:20 47.46847 8.54091 1426 ft 118 kts 155°
2026-05-01 14:20 47.44851 8.55465 1670 ft 184 kts 153°
2026-05-01 14:20 47.43710 8.56311 2197 ft 186 kts 150°
2026-05-01 14:21 47.42656 8.57438 2681 ft 187 kts 129°
2026-05-01 14:21 47.42027 8.59098 3057 ft 194 kts 103°
2026-05-01 14:21 47.42154 8.60978 3428 ft 186 kts 59°
2026-05-01 14:22 47.44309 8.62594 4243 ft 180 kts 21°
2026-05-01 14:22 47.45291 8.63789 4660 ft 184 kts 44°
2026-05-01 14:22 47.46063 8.65301 5040 ft 189 kts 64°
2026-05-01 14:22 47.46178 8.67235 5402 ft 199 kts 91°
2026-05-01 14:23 47.46169 8.69275 5827 ft 194 kts 79°
2026-05-01 14:23 47.46303 8.71232 6226 ft 196 kts 80°
2026-05-01 14:23 47.46392 8.73293 6618 ft 206 kts 82°
2026-05-01 14:23 47.46471 8.75503 6907 ft 224 kts 85°
2026-05-01 14:24 47.46264 8.77848 7262 ft 242 kts 100°
2026-05-01 14:24 47.45921 8.80306 7571 ft 247 kts 100°
2026-05-01 14:24 47.45630 8.82785 7853 ft 256 kts 97°
2026-05-01 14:24 47.45332 8.85462 8008 ft 273 kts 96°
2026-05-01 14:25 47.45004 8.88283 8343 ft 280 kts 98°
2026-05-01 14:25 47.44661 8.91165 8650 ft 288 kts 99°
2026-05-01 14:25 47.44324 8.94074 9001 ft 296 kts 101°
2026-05-01 14:25 47.43977 8.97034 9489 ft 305 kts 100°
2026-05-01 14:26 47.43621 9.00016 10009 ft 315 kts 100°
2026-05-01 14:26 47.42851 9.06626 10693 ft 349 kts 101°
2026-05-01 14:26 47.42423 9.10247 10932 ft 368 kts 101°
2026-05-01 14:27 47.41977 9.14032 11376 ft 380 kts 101°
2026-05-01 14:27 47.41626 9.17951 11817 ft 391 kts 91°
2026-05-01 14:27 47.42007 9.21896 12254 ft 398 kts 68°
2026-05-01 14:28 47.44726 9.29163 13182 ft 410 kts 56°
2026-05-01 14:28 47.46148 9.32813 13627 ft 418 kts 57°
2026-05-01 14:28 47.47633 9.36559 14074 ft 424 kts 52°
2026-05-01 14:28 47.49586 9.39789 14511 ft 420 kts 33°
2026-05-01 14:29 47.52084 9.41836 14978 ft 412 kts 14°
2026-05-01 14:29 47.54802 9.43143 15430 ft 415 kts 11°
2026-05-01 14:30 47.63283 9.45371 16783 ft 413 kts 355°
2026-05-01 14:30 47.66038 9.45498 17185 ft 387 kts 355°
2026-05-01 14:30 47.68634 9.45670 17657 ft 358 kts 355°
2026-05-01 14:31 47.73547 9.45932 18573 ft 356 kts 354°
2026-05-01 14:31 47.76006 9.46063 19021 ft 358 kts 354°
2026-05-01 14:31 47.78492 9.46198 19472 ft 360 kts 354°
2026-05-01 14:31 47.81016 9.46312 19927 ft 361 kts 353°
2026-05-01 14:32 47.83520 9.46307 20379 ft 361 kts 351°
2026-05-01 14:32 47.86035 9.46275 20832 ft 363 kts 352°
2026-05-01 14:32 47.88545 9.46264 21280 ft 364 kts 352°
2026-05-01 14:32 47.91065 9.46259 21727 ft 365 kts 352°
2026-05-01 14:33 47.93559 9.46257 22165 ft 356 kts 352°
2026-05-01 14:33 47.95997 9.46251 22616 ft 354 kts 351°
2026-05-01 14:33 47.98461 9.46240 23070 ft 355 kts 351°
2026-05-01 14:33 48.00927 9.46232 23521 ft 356 kts 351°